Other Public Products
Issued by NWS Grand Forks, ND

Home | Current Version | Previous Version | Graphics & Text | Print | Product List | Glossary On
Versions: 1 2 3 4 5 6 7 8 9 10 11 12 13 14 15 16 17 18 19 20 21 22 23 24 25 26 27 28 29 30 31 32 33 34 35 36 37 38 39 40 41 42 43 44 45 46 47 48 49 50
000
FPUS83 KFGF 201910
OPUFGF
PRAIRIE TO PINES WEATHER ROUNDUP
NATIONAL WEATHER SERVICE EASTERN NORTH DAKOTA/GRAND FORKS ND
100 PM CST FRI JAN 20 2017

 **SATELLITE DATA USED TO AUGMENT SKY COVER AT AUTOMATED STATIONS**
 *****  WEATHER ACROSS EASTERN NORTH DAKOTA  *****

CITY           SKY/WX    TMP DP  RH WIND       PRES   REMARKS
GRAND FORKS    FOG       36  33  89 SE10      29.47F VSB 3/4
GRAND FORKS AF FOG       35  34  99 SE8       29.47F VSB 3/4
GRAND CITY NWS NOT AVBL
BUXTON         NOT AVBL
DEVILS LAKE    MIX PCPN  34  33  96 S9        29.42F FOG
FARGO          CLOUDY    38  35  89 SE10      29.48F FOG
WAHPETON ARPT  CLOUDY    34  32  93 SE10      29.47F
$$

 *****  WEATHER ACROSS CENTRAL AND WESTERN NORTH DAKOTA  *****

CITY           SKY/WX    TMP DP  RH WIND       PRES   REMARKS
JAMESTOWN      CLOUDY    34  34 100 SE12      29.39F FOG
BISMARCK       CLOUDY    29  27  92 NW3       29.37F FOG
MINOT          FAIR      27  21  78 S8        29.36F WCI  19
MINOT AFB      NOT AVBL
GARRISON         N/A     22  20  92 S10       29.35F WCI  11
WILLISTON      FAIR      30  22  72 CALM      29.37F
DICKINSON      FAIR      32  25  75 N7        29.32F
HETTINGER      FAIR      33  27  78 N12       29.33F WCI  24
$$

 *****  OTHER OBSERVATIONS NORTHEAST NORTH DAKOTA  *****

CITY           SKY/WX    TMP DP  RH WIND       PRES   REMARKS
WALHALLA       NOT AVBL
LANGDON        NOT AVBL
CAVALIER       FOG       34  34 100 S10       29.47F VSB<1/4
GRAFTON        FOG       34  34 100 SE8       29.49F VSB<1/4
CANDO          NOT AVBL
FORT TOTTEN      N/A     34  34 100 S8        29.95S
ROLLA            N/A    N/A N/A N/A MISG        N/A
RUGBY          FOG       32  32 100 CALM      29.39F VSB 1
 ***** THE ABOVE OBSERVATIONS ARE NON NWS ARE NOT QUALITY
        CONTROLLED AND MAY MIS-REPORT RAIN FOR SNOW...
$$

 *****  OTHER OBSERVATIONS SOUTHEAST NORTH DAKOTA *****

CITY           SKY/WX    TMP DP  RH WIND       PRES   REMARKS
COOPERSTOWN    CLOUDY    34  34 100 SE14      29.43F FOG     WCI  24
VALLEY CITY    CLOUDY    34  34 100 SE9       29.44F FOG
OAKES          NOT AVBL
GWINNER        CLOUDY    36  36 100 SE16      29.42F
SHEYENNE NWR     N/A     34  33  96 SE8       29.95S
BUFFALO        NOT AVBL
WYNDMERE       NOT AVBL
 ***** THE ABOVE OBSERVATIONS ARE NON NWS ARE NOT QUALITY
       CONTROLLED AND MAY MIS-REPORT RAIN FOR SNOW...
$$

  *****  WEATHER ACROSS NORTHERN MINNESOTA  *****

CITY           SKY/WX    TMP DP  RH WIND       PRES   REMARKS
FLAG ISLAND    CLOUDY    36  34  93 E5        29.52F FOG
WARROAD        CLOUDY    36  32  87 E6        29.51F FOG
ROSEAU         CLOUDY    36  30  80 E3        29.51F FOG
HALLOCK        CLOUDY    36  34  93 SE9       29.48F FOG
THF RVR FALLS  CLOUDY    36  33  89 SE9       29.50F
HALSTAD        NOT AVBL
FOSSTON        CLOUDY    36  36 100 SE6       29.50F
BAUDETTE       CLOUDY    37  34  89 SE9       29.51F FOG
WASKISH        LGT RAIN  37  36  93 E8        29.52F
CROOKSTON      CLOUDY    34  34 100 SE6       29.50F FOG
$$
  *****  WEATHER ACROSS CENTRAL AND WEST MINNESOTA  *****

CITY           SKY/WX    TMP DP  RH WIND       PRES   REMARKS
BEMIDJI        CLOUDY    34  33  96 SE9       29.51F
PARK RAPIDS    FOG       35  32  88 SE9       29.50F VSB 3/4
WADENA         FOG       34  34 100 SE8       29.51F VSB 1/2
DETROIT LAKES  FOG       34  34 100 SE12      29.51S VSB 3/4
MOORHEAD       CLOUDY    34  34 100 SE7       29.49F FOG
FERGUS FALLS   CLOUDY    34  34 100 SE10      29.53F FOG
ELBOW LAKE     CLOUDY    33  33 100 SE8       29.49F FOG
MORRIS MN      CLOUDY    36  34  93 SE12      29.47F FOG
STAPLES        CLOUDY    34  34 100 SE5       29.52F FOG
WHEATON        CLOUDY    43  43 100 E13       29.48F FOG
$$
  *****  WEATHER ELSEWHERE ACROSS MINNESOTA  *****

CITY           SKY/WX    TMP DP  RH WIND       PRES   REMARKS
DULUTH         LGT RAIN  35  34  96 E14       29.57F FOG
INTRNTL FALLS  CLOUDY    38  34  85 SE8       29.55F
ELY            CLOUDY    37  34  87 SE3       29.59F
CLOQUET        RAIN      36  34  93 E6        29.57S VSB 1/2
BRAINERD       FOG       35  34  96 SE6       29.54F VSB 1
HIBBING        LGT RAIN  34  34 100 SE9       29.56F
ALEXANDRIA     CLOUDY    33  33 100 SE10      29.52S FOG     WCI  25
SAINT CLOUD    FOG       34  34 100 SE9       29.54F VSB 1/4
MINNEAPOLIS    CLOUDY    36  34  92 SE6       29.56F
$$

  *****  WEATHER ACROSS SOUTH DAKOTA  *****

CITY           SKY/WX    TMP DP  RH WIND       PRES   REMARKS
SIOUX FALLS    CLOUDY    40  39  97 S14       29.44F FOG
BROOKINGS      CLOUDY    37  36  96 SE18G24   29.41F FOG
WATERTOWN      CLOUDY    36  35  96 SE14      29.39F
HURON          CLOUDY    38  35  89 S12       29.36F
SISSETON         N/A     35  35 100 S8        29.43F
ABERDEEN       CLOUDY    35  32  88 SE10      29.38F
MITCHELL       PTSUNNY   42  37  82 S15       29.38F
PIERRE         FAIR      19  15  84 SW7       29.32F WCI  10
MOBRIDGE       CLOUDY    28  24  85 N6        29.30F FOG     WCI  22
RAPID CITY     FAIR      41  31  67 NW17      29.32F
$$

  *****  SOME WEATHER IN NEARBY STATES *****

CITY           SKY/WX    TMP DP  RH WIND       PRES   REMARKS
GLASGOW MT     FAIR      34  28  79 W12       29.38F
GREAT FALLS MT FAIR      40  26  57 SW13      29.40F
CHEYENNE WY    CLOUDY    38  21  50 NW12      29.39F
SCOTTSBLUFF NE CLOUDY    41  29  62 W13       29.38F
OMAHA NE       CLOUDY    44  40  85 SE8       29.49F
DES MOINES IA  CLOUDY    42  40  92 SE7       29.55F FOG
DAVENPORT IA   CLOUDY    43  41  93 S5        29.57F
CHICAGO IL     DRIZZLE   41  39  93 CALM      29.62F FOG
EAU CLAIRE WI  CLOUDY    36  35  96 SE6       29.59F FOG
LA CROSSE WI   CLOUDY    40  36  86 CALM      29.60F FOG
$$

  *****  SOME NATIONAL WEATHER *****

CITY           SKY/WX    TMP DP  RH WIND       PRES   REMARKS
LA GUARDIA NY  CLOUDY    46  34  62 SW5       29.93F
RALEIGH NC     CLOUDY    56  53  90 CALM      29.86S FOG
ATLANTA GA     PTSUNNY   71  54  54 W13G22    29.83F
NEW ORLEANS LA PTSUNNY   79  66  64 W7        29.79F
OKLAHOMA CITY  FAIR      60  36  40 SW24G33   29.51F
ALBUQUERQUE NM CLOUDY    41  28  60 SW14      29.73F
SALT LAKE CITY PTSUNNY   37  33  85 S13       29.52F
LOS ANGELES CA HVY RAIN  55  53  93 S12G20    29.58F FOG
BOISE ID       CLOUDY    40  27  59 SE16      29.34F
SEATTLE WA     PTSUNNY   50  32  50 SE13G24   29.11F
$$

*** WEATHER ACROSS MANITOBA...SASKATCHEWAN AND ONTARIO ***
                ***ONTARIO***

CITY           SKY/WX    TMP DP  RH WIND       PRES   REMARKS
GERALDTON      FOG       36  36 100 SW7       29.64S VSB 1/4
THUNDER BAY    FOG       32  32 100 CALM      29.67F VSB 1/4
SIOUX LOOKOUT  FOG       34  34 100 SE7       29.59F VSB 1/8
TORONTO        CLOUDY    37  34  87 E9        29.71F
BIG TROUT LK   CLOUDY    25  25 100 SE3       29.59F FOG
PICKLE LAKE    FOG       34  34 100 SW9       29.58S VSB 1/2
DRYDEN         FOG       36  36 100 SE6       29.56F VSB 1/8
KENORA         FOG       36  36 100 SE7       29.53F VSB 1/8
$$
                *** MANITOBA***

CITY           SKY/WX    TMP DP  RH WIND       PRES   REMARKS
BRANDON        MOSUNNY   21  14  73 CALM      29.41F
DAUPHIN        CLOUDY    27  25  93 E5        29.38S WCI  21
ISLAND LAKE    CLOUDY    27  25  93 SE8       29.54R FOG     WCI  18
PILOT MOUND      N/A     34  32  93 S13         N/A  WCI  25
THE PAS        MOSUNNY   32  25  74 SE9       29.36F WCI  24
THOMPSON       LGT SNOW  28  27  93 E5        29.51S FOG     WCI  23
WINNIPEG       DRIZZLE   36  36 100 S12       29.47F FOG
LYNN LAKE      CLOUDY    28  28 100 SE10G17   29.44S WCI  19
CHURCHILL      FLURRIES  16  14  93 E17       29.75F WCI   0
GILLAM         LGT SNOW  27  25  93 E5        29.60F VSB 5/8 WCI  21
$$
                ***SASKATCHEWAN***

CITY           SKY/WX    TMP DP  RH WIND       PRES   REMARKS
ESTEVAN        CLOUDY    21  19  93 CALM      29.34F FOG
KINDERSLEY     PTSUNNY   34  27  75 NW6       29.31F
LLOYDMINSTER   PTSUNNY   32  28  86 NW8       29.34S WCI  25
PRINCE ALBERT  PTSUNNY   30  30 100 W3        29.30F
REGINA         PTSUNNY   27  23  86 SW3       29.32F
YORKTON        SUNNY     27  25  93 S6        29.32F WCC1F1C2F2C3F3C4F4C5F5C6F6C7F7C8F8C9F9CaFaCbFbCcFcCdFdCe!



USA.gov is the U.S. government's official web portal to all federal, state and local government web resources and services.